Main page
METAR-TAF:

METAR-TAF

Airports :

San Cristóbal Airport

Galapagos, Ecuador

latitude: 00-54S, longitude: 089-36W, elevation: 6 m

Current weather observation

The report was made 6 hours and 41 minutes ago, at 22:00 UTC
Wind 10 kt from the South
Temperature 23°C
Humidity 78%
Pressure 1010 hPa
Visibility 10 km or more
Scattered clouds at a height of 2000 ft

METAR: SEST 222200Z 18010KT 9999 SCT020 23/19 Q1010 RMK A2983

Time: 22:41 (04:41 UTC)


TAF: missing

Weather observations and forecasts of more than 4000 airports (METAR and TAF reports).

The available stations are represented by yellow and red dots on the map.

Hover mouse over dot to see the name of the station.

Then click to see weather observations and forecasts.

To change the map : click on the green buttons with a black cross to zoom in, on the green button with a dash to zoom out, or on the green arrows for adjacent maps.


METAR-TAF: